Regional Weather Roundup
Issued by NWS Newport/Morehead, NC

Current Version | Previous Version | Text Only | Print | Product List | Glossary On
Versions: 1 2 3 4 5 6 7 8 9 10 11 12 13 14 15 16 17 18 19 20 21 22 23 24 25 26 27 28 29 30 31 32 33 34 35 36 37 38 39 40 41 42 43 44 45 46 47 48 49 50
000
ASUS42 KMHX 272312
RWRMHX
WEATHER ROUNDUP FOR EASTERN NORTH CAROLINA
NATIONAL WEATHER SERVICE NEWPORT/MOREHEAD CITY NC
700 PM EDT MON APR 27 2015

NOTE: "FAIR" INDICATES FEW OR NO CLOUDS BELOW 12,000 FEET
WITH NO SIGNIFICANT WEATHER AND/OR OBSTRUCTIONS TO VISIBILITY

NCZ015>017-031-032-045>047-102-103-280000-
NORTH COAST

CITY           SKY/WX    TMP DP  RH WIND       PRES   REMARKS
EDENTON        CLOUDY    64  40  42 N7        29.78R
ELIZABETH CITY CLOUDY    57  41  55 E6        29.79S
KITTY HAWK     PTCLDY    54  40  59 NE3       29.78S
MANTEO         MOCLDY    56  39  53 NE9       29.79S

$$

NCZ045>047-081-094-103-104-280000-
CENTRAL COAST

CITY           SKY/WX    TMP DP  RH WIND       PRES   REMARKS
FRISCO         PTCLDY    54  38  54 NE6G17    29.78R
SWANQUARTER      N/A     66 N/A N/A NW7       29.74S

$$

NCZ095-097-098-100-101-280000-
SOUTHERN COAST

CITY           SKY/WX    TMP DP  RH WIND       PRES   REMARKS
BEAUFORT       PTCLDY    67  42  40 N14       29.77R
CEDAR ISLAND     N/A     70 N/A N/A SW1       29.79S
JACKSONVILLE   PTCLDY    66  38  35 W10       29.78R
PINEY ISLAND   CLEAR    N/A N/A N/A NW15      29.76S
WILMINGTON     PTCLDY    69  41  36 NW10      29.80R


$$

NCZ011>013-027>030-043-044-078>080-089-090>093-098-280000-
COASTAL PLAIN

CITY           SKY/WX    TMP DP  RH WIND       PRES   REMARKS
AHOSKIE        CLOUDY    61  40  46 NW3       29.80R
CLINTON        SUNNY     67  42  40 NW3       29.80R
ELIZABETHTOWN  PTSUNNY   68  40  35 CALM      29.80R
GOLDSBORO      MOCLDY    68  37  32 N8        29.77R
GREENVILLE     PTCLDY    64  37  36 N8G16     29.81S
HAVELOCK       CLEAR     67  35  30 NW14G20   29.78R
KENANSVILLE    CLEAR     66  35  32 NW7       29.80R
KINSTON        PTCLDY    66  34  30 NW8       29.79R
NEW BERN       CLEAR     67  36  31 NW7       29.78S
RICHLANDS      CLEAR     64  37  36 W3        29.79R
ROCKY MOUNT    MOCLDY    64  36  35 NW12      29.80R
WASHINGTON     PTCLDY    65  37  35 NW6       29.78S
WHITEVILLE     PTSUNNY   68  41  38 W5        29.81R

$$

AMZ130-135-150-152-154-156-158-170-250-252-270-ANZ085-086-088-633-658-670-280000-
MARINE OBSERVATIONS

STATION/POSITION TIME  TEMP    WIND        PRES    WAVE   SWELL
                       AIR SEA DIR/SP/G            HT/PER HT/PER
                 (UTC) (F)     (DEG/KT/KT) (MB)    (FT/S) (FT/S)
CHESAPEAKE LIGHT 2300   52     340/  4/  4 1009.3
64 E VA BEACH    2250   55 56  330/ 10/ 10 1008.0    2/ 8   2/ 8
DUCK             2200   53 56   90/  6/  7 1007.8
2 E DUCK         2211      54                N/A     3/ 8
OREGON INLET     2200   55 58   30/ 11/ 17 1008.3
13E OREGON INLT  NOT AVBL
HATTERAS CG      2218   59 63   40/ 10/ 14 1007.7
DIAMOND BUOY     2250   63 74   10/ 16/ 21 1007.5    4/ 8   3/ 8
CAPE LOOKOUT     2300   64     250/  5/  7 1007.9
BEAUFORT LAB     2218   66 62  250/  5/  9 1006.9
27 SE WRIGHTSVLE 2200   64 73  260/  6/  8   N/A
5 SE WRIGHTSVLE  2208   64 66  220/ 12/ 16 1008.2
225 S CAPE HAT   2250   67 71  360/ 16/ 19 1007.8    5/ 8   3/ 8
41 SE CHARLESTON 2250   65 71  360/  2/  4 1009.9    3/ 5   2/ 5

$$


USA.gov is the U.S. government's official web portal to all federal, state and local government web resources and services.